Melton Hill Observed Data For Previous 48 Hours

Caption
Day and Hour Reservoir Elevation (behind dam)* Tailwater Elevation (below dam)* Average Hourly Discharge*
3/18/2019 2 AM EDT 793.42 743.98 25,231
3/18/2019 3 AM EDT 793.42 743.98 25,253
3/18/2019 4 AM EDT 793.43 743.98 25,235
3/18/2019 5 AM EDT 793.43 743.97 25,221
3/18/2019 6 AM EDT 793.44 743.97 25,225
3/18/2019 7 AM EDT 793.44 743.98 25,228
3/18/2019 8 AM EDT 793.44 743.99 25,246
3/18/2019 9 AM EDT 793.45 743.98 25,218
3/18/2019 10 AM EDT 793.45 743.97 25,196
3/18/2019 11 AM EDT 793.45 743.97 25,180
3/18/2019 12 PM EDT 793.45 743.98 25,193
3/18/2019 1 PM EDT 793.46 743.97 25,200
3/18/2019 2 PM EDT 793.05 744.42 25,129
3/18/2019 3 PM EDT 793.15 744.86 25,978
3/18/2019 4 PM EDT 793.16 744.61 26,295
3/18/2019 5 PM EDT 793.22 744.50 26,292
3/18/2019 6 PM EDT 793.23 744.43 26,284
3/18/2019 7 PM EDT 793.22 744.41 26,288
3/18/2019 8 PM EDT 793.17 744.39 26,330
3/18/2019 9 PM EDT 793.13 744.39 26,338
3/18/2019 10 PM EDT 793.10 744.39 26,323
3/18/2019 11 PM EDT 793.08 744.38 26,320
3/19/2019 12 AM EDT 793.06 744.39 26,292
3/19/2019 1 AM EDT 793.05 744.39 26,295
3/19/2019 2 AM EDT 793.04 744.40 26,293
3/19/2019 3 AM EDT 793.02 744.40 26,270
3/19/2019 4 AM EDT 793.01 744.41 26,274
3/19/2019 5 AM EDT 792.99 744.40 26,291
3/19/2019 6 AM EDT 792.97 744.41 26,273
3/19/2019 7 AM EDT 792.95 744.41 26,284
3/19/2019 8 AM EDT 792.93 744.42 26,262
3/19/2019 9 AM EDT 792.92 744.42 26,247
3/19/2019 10 AM EDT 792.90 744.42 26,228
3/19/2019 11 AM EDT 792.87 744.43 26,252
3/19/2019 12 PM EDT 792.86 744.43 26,276
3/19/2019 1 PM EDT 792.85 744.43 26,322
3/19/2019 2 PM EDT 792.82 744.43 26,285
3/19/2019 3 PM EDT 792.80 744.44 26,325
3/19/2019 4 PM EDT 792.78 744.44 26,283
3/19/2019 5 PM EDT 792.76 744.45 26,278
3/19/2019 6 PM EDT 792.74 744.45 26,297
3/19/2019 7 PM EDT 792.72 744.43 26,297
3/19/2019 8 PM EDT 792.70 744.44 26,302
3/19/2019 9 PM EDT 792.68 744.43 26,262
3/19/2019 10 PM EDT 792.67 744.44 26,260
3/19/2019 11 PM EDT 792.64 744.42 26,240
3/20/2019 12 AM EDT 792.63 744.43 26,267
3/20/2019 1 AM EDT 792.62 744.44 26,300
3/20/2019 2 AM EDT 792.60 744.42 26,290
3/20/2019 3 AM EDT 792.58 744.41 26,293
3/20/2019 4 AM EDT 792.56 744.41 26,297
3/20/2019 5 AM EDT 792.54 744.41 26,287
3/20/2019 6 AM EDT 792.53 744.39 26,265
3/20/2019 7 AM EDT 792.51 744.39 26,260
3/20/2019 8 AM EDT 792.48 744.38 26,254
3/20/2019 9 AM EDT 792.46 744.39 26,233

Elevations are in feet above sea level. Discharges are in cubic feet per second and are reported at the end of the hour.